Skip Page Navigation
NASA JPL Caltech
NASA Logo - Jet Propulsion Laboratory + View the NASA Portal
+ Near-Earth Object (NEO) Program
Search JPL
JPL Home Earth Solar System Stars & Galaxies Technology
JPL Solar System Dynamics
BODIES ORBITS EPHEMERIDES TOOLS PHYSICAL DATA DISCOVERY FAQ SITE MAP
JPL Small-Body Database Browser
Search: [ help ]  
7450 Shilling (1968 OZ)
Classification: Main-belt Asteroid          SPK-ID: 2007450
Ephemeris | Orbit Diagram | Orbital Elements | Physical Parameters | Discovery Circumstances ]

[ show orbit diagram ]
Orbital Elements at Epoch 2456400.5 (2013-Apr-18.0) TDB
Reference: MPO253415 (heliocentric ecliptic J2000)
 Element Value Uncertainty (1-sigma)   Units 
e 0.1656323 n/a  
a 2.6206442 n/a AU
q 2.1865809 n/a AU
i 27.42169 n/a deg
node 67.84888 n/a deg
peri 99.58287 n/a deg
M 272.91243 n/a deg
tp 2456775.3557450
(2014-Apr-27.85574500)
n/a JED
period 1549.5675006
4.24
n/a
n/a
d
yr
n 0.23232289 n/a deg/d
Q 3.0547075 n/a AU
  Orbit Determination Parameters
   # obs. used (total)      608  
   first obs. used      1968-??-??  
   last obs. used      2013-02-09  
   # oppositions      16  
   planetary ephem.      DE403  
   condition code      0  
   fit RMS      0.47  
   data source      MPC:mpn  
   producer      MPCLINUX  

Additional Information
 T_jup = 3.228 

Ephemeris | Orbit Diagram | Orbital Elements | Physical Parameters | Discovery Circumstances ]

Physical Parameter Table
Parameter Symbol Value Units Sigma Reference Notes
absolute magnitude H 13.0 mag n/a PDS3 (MPC 29077)  

7450 Shilling           Discovered 1968 July 24 by G. A. Plyugin and Yu. A. Belyaev at Cerro El Roble.
Pavel L´vovich Shilling (1786-1837) was an outstanding Russian inventor and orientalist. In 1832 he became the first to invent an electromagnetic telegraph suitable for practical use. He investigated the history and languages of Asian peoples and gathered a large collection of oriental manuscripts.
NOTE: some special characters may not display properly (any characters within {} are an attempt to place the proper accent above a character)
Reference: 20080520/MPCPages.arcLast Updated: 2008-05-22

Alternate Designations
 1968 OZ = 1993 GF 
Ephemeris | Orbit Diagram | Orbital Elements | Physical Parameters | Discovery Circumstances ]
ABOUT SSD CREDITS/AWARDS PRIVACY/COPYRIGHT GLOSSARY LINKS
FirstGov 2013-May-24 15:56 UT
(server date/time)  
NASA Home Page
Site Manager:   Donald K. Yeomans
Webmaster  Alan B. Chamberlin